EUFI221 ETAR-EDXR

Flight info

Callsign EUFI221
Flight time 0h 38m
Altitude 24000
Route TOLEY2N RUDOT Q760 NVO/N0487F410 DCT BASUM T903 WSN L23 HAM DCT
Aircraft EUFI/M-SABDE2E3FGHIJ3J4J5P2RWXY/LB1D1

Departure

Time 2026-05-05 10:24
Airport Ramstein Air Base (ETAR)

Arrival

Time 2026-05-05 11:03
Airport Rendsburg-Schachtholm Airfield (EDXR)
Time Latitude Longitude Altitude Speed Heading
2026-05-05 10:01 49.42520 7.58021 770 ft 0 kts 219°
2026-05-05 10:13 49.42520 7.58020 770 ft 0 kts 219°
2026-05-05 10:14 49.42505 7.57979 770 ft 5 kts 281°
2026-05-05 10:14 49.42527 7.57962 770 ft 4 kts 15°
2026-05-05 10:14 49.42548 7.57984 770 ft 4 kts 38°
2026-05-05 10:14 49.42571 7.58011 770 ft 4 kts 38°
2026-05-05 10:15 49.42597 7.58043 770 ft 6 kts 40°
2026-05-05 10:15 49.42707 7.58178 770 ft 24 kts 39°
2026-05-05 10:15 49.42830 7.58328 770 ft 21 kts 38°
2026-05-05 10:15 49.42945 7.58438 770 ft 18 kts
2026-05-05 10:16 49.43064 7.58429 770 ft 16 kts 358°
2026-05-05 10:16 49.43172 7.58420 770 ft 15 kts 355°
2026-05-05 10:16 49.43270 7.58411 768 ft 14 kts 355°
2026-05-05 10:16 49.43365 7.58405 768 ft 13 kts 360°
2026-05-05 10:17 49.43441 7.58396 769 ft 9 kts 358°
2026-05-05 10:17 49.43502 7.58393 769 ft 8 kts 358°
2026-05-05 10:17 49.43568 7.58387 768 ft 11 kts 356°
2026-05-05 10:17 49.43650 7.58379 767 ft 14 kts 355°
2026-05-05 10:18 49.43756 7.58368 770 ft 17 kts 356°
2026-05-05 10:18 49.43844 7.58350 770 ft 21 kts 330°
2026-05-05 10:18 49.43955 7.58411 770 ft 19 kts 91°
2026-05-05 10:18 49.43995 7.58601 770 ft 20 kts 89°
2026-05-05 10:19 49.43982 7.58749 770 ft 22 kts 98°
2026-05-05 10:19 49.43988 7.59012 770 ft 25 kts 86°
2026-05-05 10:19 49.43996 7.59295 770 ft 28 kts 91°
2026-05-05 10:19 49.43946 7.59654 770 ft 40 kts 128°
2026-05-05 10:20 49.43727 7.59868 768 ft 36 kts 149°
2026-05-05 10:20 49.43695 7.60178 769 ft 29 kts 91°
2026-05-05 10:20 49.43703 7.60477 768 ft 27 kts 86°
2026-05-05 10:20 49.43722 7.60742 768 ft 24 kts 86°
2026-05-05 10:21 49.43724 7.60991 766 ft 23 kts 92°
2026-05-05 10:21 49.43735 7.61165 767 ft 0 kts 85°
2026-05-05 10:22 49.43735 7.61169 767 ft 1 kts 85°
2026-05-05 10:22 49.43737 7.61205 767 ft 5 kts 85°
2026-05-05 10:22 49.43742 7.61285 767 ft 10 kts 85°
2026-05-05 10:22 49.43748 7.61418 766 ft 15 kts 86°
2026-05-05 10:23 49.43758 7.61601 768 ft 19 kts 71°
2026-05-05 10:23 49.43767 7.61719 769 ft 0 kts 92°
2026-05-05 10:23 49.43761 7.61714 769 ft 4 kts 265°
2026-05-05 10:24 49.43760 7.61674 769 ft 4 kts 268°
2026-05-05 10:24 49.43735 7.61104 767 ft 144 kts 267°
2026-05-05 10:24 49.43637 7.58838 1082 ft 262 kts 265°
2026-05-05 10:24 49.43444 7.55374 2482 ft 392 kts 264°
2026-05-05 10:25 49.43098 7.50560 4585 ft 507 kts 262°
2026-05-05 10:25 49.42835 7.44683 7505 ft 589 kts 266°
2026-05-05 10:25 49.42632 7.38232 10814 ft 610 kts 266°
2026-05-05 10:25 49.42417 7.31538 14396 ft 665 kts 265°
2026-05-05 10:26 49.42092 7.24184 18528 ft 707 kts 264°
2026-05-05 10:26 49.41718 7.16653 23185 ft 726 kts 266°
2026-05-05 10:26 49.41597 7.08832 28570 ft 731 kts 266°
2026-05-05 10:26 49.41956 7.01051 35430 ft 738 kts 275°
2026-05-05 10:27 49.43042 6.92967 38621 ft 799 kts 295°
2026-05-05 10:27 49.46809 6.86960 39473 ft 763 kts 326°
2026-05-05 10:27 49.50252 6.81533 39870 ft 692 kts 299°
2026-05-05 10:27 49.52758 6.74842 39944 ft 755 kts 302°
2026-05-05 10:28 49.56219 6.68262 40007 ft 819 kts 313°
2026-05-05 10:28 49.60559 6.62767 40000 ft 786 kts 325°
2026-05-05 10:28 49.65310 6.59000 39986 ft 750 kts 338°
2026-05-05 10:28 49.70267 6.57031 39961 ft 724 kts 352°
2026-05-05 10:29 49.75226 6.56635 39936 ft 703 kts 359°
2026-05-05 10:29 49.79994 6.56829 39900 ft 688 kts
2026-05-05 10:29 49.89427 6.57683 39849 ft 670 kts
2026-05-05 10:30 49.98666 6.58689 39850 ft 661 kts
2026-05-05 10:30 50.07811 6.59752 39847 ft 657 kts
2026-05-05 10:31 50.16917 6.60864 39841 ft 655 kts
2026-05-05 10:31 50.26098 6.61997 39854 ft 697 kts
2026-05-05 10:32 50.31068 6.62608 39863 ft 722 kts
2026-05-05 10:32 50.35957 6.63216 39864 ft 705 kts
2026-05-05 10:32 50.40794 6.63823 39852 ft 689 kts
2026-05-05 10:32 50.45535 6.64424 39849 ft 678 kts
2026-05-05 10:33 50.54845 6.65638 39850 ft 665 kts
2026-05-05 10:33 50.64032 6.66864 39866 ft 659 kts
2026-05-05 10:34 50.73105 6.68088 39890 ft 655 kts
2026-05-05 10:34 50.82176 6.69331 39887 ft 653 kts
2026-05-05 10:35 50.91241 6.70580 39883 ft 653 kts
2026-05-05 10:35 51.00293 6.71829 39906 ft 653 kts
2026-05-05 10:36 51.09341 6.73077 39882 ft 653 kts
2026-05-05 10:36 51.18397 6.74336 39893 ft 651 kts
2026-05-05 10:37 51.27422 6.75612 39888 ft 650 kts
2026-05-05 10:37 51.36384 6.76884 39883 ft 650 kts
2026-05-05 10:38 51.45401 6.78173 39886 ft 648 kts
2026-05-05 10:38 51.54384 6.79464 39886 ft 648 kts
2026-05-05 10:39 51.63261 6.81832 39921 ft 652 kts 18°
2026-05-05 10:39 51.71698 6.87295 39903 ft 653 kts 22°
2026-05-05 10:40 51.80004 6.93262 39903 ft 654 kts 23°
2026-05-05 10:40 51.88291 6.99342 39908 ft 654 kts 23°
2026-05-05 10:41 51.96566 7.05460 39910 ft 654 kts 23°
2026-05-05 10:41 52.04787 7.11560 39906 ft 654 kts 23°
2026-05-05 10:42 52.17179 7.20811 39913 ft 653 kts 23°
2026-05-05 10:43 52.25430 7.27004 39917 ft 653 kts 23°
2026-05-05 10:43 52.33692 7.33221 39923 ft 651 kts 23°
2026-05-05 10:44 52.41911 7.39420 39926 ft 649 kts 23°
2026-05-05 10:44 52.50063 7.45584 39929 ft 649 kts 23°
2026-05-05 10:44 52.54024 7.49135 39959 ft 651 kts 35°
2026-05-05 10:45 52.57389 7.54134 39964 ft 654 kts 47°
2026-05-05 10:45 52.63127 7.65789 39943 ft 656 kts 52°
2026-05-05 10:46 52.68597 7.77838 39938 ft 656 kts 53°
2026-05-05 10:46 52.73979 7.89890 39930 ft 656 kts 53°
2026-05-05 10:47 52.79380 8.02062 39933 ft 657 kts 53°
2026-05-05 10:47 52.84788 8.14291 39930 ft 658 kts 53°
2026-05-05 10:48 52.90192 8.26534 39926 ft 658 kts 53°
2026-05-05 10:48 52.95562 8.38732 39925 ft 658 kts 53°
2026-05-05 10:49 53.00955 8.51031 39935 ft 658 kts 53°
2026-05-05 10:49 53.06354 8.63336 39952 ft 658 kts 50°
2026-05-05 10:49 53.09588 8.68665 39962 ft 655 kts 35°
2026-05-05 10:50 53.13481 8.72566 39972 ft 652 kts 24°
2026-05-05 10:50 53.21772 8.78420 39946 ft 651 kts 19°
2026-05-05 10:51 53.30236 8.83838 39934 ft 651 kts 19°
2026-05-05 10:51 53.38716 8.89179 39926 ft 651 kts 19°
2026-05-05 10:52 53.47200 8.94537 39931 ft 652 kts 21°
2026-05-05 10:52 53.51164 8.98249 39957 ft 656 kts 36°
2026-05-05 10:52 53.54488 9.03544 39977 ft 659 kts 51°
2026-05-05 10:52 53.56930 9.10049 39985 ft 659 kts 65°
2026-05-05 10:53 53.58647 9.17218 39964 ft 659 kts 71°
2026-05-05 10:53 53.61487 9.31803 39942 ft 659 kts 73°
2026-05-05 10:54 53.64173 9.46617 39933 ft 660 kts 73°
2026-05-05 10:54 53.67768 9.60758 39571 ft 634 kts 53°
2026-05-05 10:54 53.70932 9.66627 38947 ft 718 kts 39°
2026-05-05 10:55 53.75226 9.71598 38286 ft 801 kts 26°
2026-05-05 10:55 53.80684 9.75414 37530 ft 912 kts 15°
2026-05-05 10:55 53.87375 9.77812 36847 ft 1053 kts
2026-05-05 10:55 53.95103 9.79075 36151 ft 1163 kts
2026-05-05 10:56 54.03494 9.78799 35477 ft 1260 kts 355°
2026-05-05 10:56 54.12474 9.77754 34828 ft 1302 kts 354°
2026-05-05 10:56 54.21484 9.76447 34172 ft 1273 kts 353°
2026-05-05 10:56 54.29385 9.75256 33749 ft 1004 kts 353°
2026-05-05 10:57 54.35498 9.74369 33058 ft 770 kts 352°
2026-05-05 10:57 54.40209 9.72681 32268 ft 631 kts 338°
2026-05-05 10:57 54.43876 9.69597 31476 ft 565 kts 322°
2026-05-05 10:57 54.46634 9.65265 30710 ft 512 kts 305°
2026-05-05 10:58 54.48300 9.60206 29823 ft 464 kts 290°
2026-05-05 10:58 54.48856 9.55003 28499 ft 420 kts 266°
2026-05-05 10:58 54.48484 9.50309 27677 ft 375 kts 258°
2026-05-05 10:58 54.47914 9.46115 26314 ft 347 kts 256°
2026-05-05 10:59 54.47319 9.42343 25398 ft 307 kts 254°
2026-05-05 10:59 54.46427 9.39362 24476 ft 267 kts 234°
2026-05-05 10:59 54.45111 9.36945 21920 ft 292 kts 223°
2026-05-05 10:59 54.43363 9.34823 19107 ft 324 kts 213°
2026-05-05 11:00 54.41172 9.33318 16140 ft 356 kts 194°
2026-05-05 11:00 54.37772 9.33215 12264 ft 649 kts 176°
2026-05-05 11:00 54.33482 9.34384 7753 ft 533 kts 168°
2026-05-05 11:00 54.30593 9.35296 4053 ft 340 kts 140°
2026-05-05 11:01 54.29864 9.37661 2165 ft 154 kts 90°
2026-05-05 11:01 54.29943 9.40199 1957 ft 243 kts 82°
2026-05-05 11:01 54.30081 9.42595 1710 ft 189 kts 81°
2026-05-05 11:01 54.30240 9.44693 1281 ft 167 kts 79°
2026-05-05 11:02 54.30414 9.46617 875 ft 164 kts 78°
2026-05-05 11:02 54.30628 9.48643 724 ft 177 kts 77°
2026-05-05 11:02 54.30855 9.50546 326 ft 147 kts 76°
2026-05-05 11:02 54.31034 9.52096 31 ft 117 kts 77°
2026-05-05 11:03 54.31097 9.52674 35 ft 10 kts 81°
2026-05-05 11:03 54.31162 9.53271 37 ft 133 kts 79°
2026-05-05 11:03 54.31167 9.54971 1505 ft 184 kts 61°
2026-05-05 11:03 54.31845 9.54746 37 ft 32 kts 116°
2026-05-05 11:04 54.31008 9.51883 35 ft 123 kts 75°
2026-05-05 11:04 54.30161 9.43742 1504 ft 177 kts 80°
2026-05-05 11:04 54.30331 9.45596 1187 ft 131 kts 78°
2026-05-05 11:04 54.30539 9.47650 984 ft 199 kts 78°
2026-05-05 11:05 54.30734 9.49587 542 ft 181 kts 76°
2026-05-05 11:05 54.30996 9.51776 53 ft 175 kts 78°
2026-05-05 11:05 54.31146 9.53142 37 ft 53 kts 79°
2026-05-05 11:05 54.31165 9.53316 36 ft 8 kts 79°
2026-05-05 11:06 54.31317 9.54013 40 ft 34 kts
2026-05-05 11:06 54.31353 9.53989 39 ft 0 kts 262°
2026-05-05 11:06 54.31362 9.53768 39 ft 17 kts 353°
2026-05-05 11:06 54.31450 9.53842 39 ft 0 kts 349°